RH
15 15 18 16 16 18 18 17 16 14 14 12 18 18 18 18 20 20 19 18 19 23 25 28 33 45 57 61 72 78 81 81 84 87 93 96 100 61 20 17 13 11 10 15
15 15 16 16 17 19 22 21 20 17 16 14 20 20 18 18 19 21 23 27 29 30 28 30 35 42 53 60 71 92 90 97 96 82 95 98 100 95 23 18 14 12 10 9
12 16 16 16 22 24 23 23 23 18 17 20 23 19 18 18 21 22 23 25 28 28 32 34 38 45 52 53 64 87 95 73 96 93 97 100 100 100 99 32 15 12 11 9
15 16 16 22 21 20 21 20 20 20 23 17 23 20 24 19 20 22 25 28 27 30 37 38 42 47 50 55 64 86 97 77 100 97 100 99 100 100 100 63 30 12 11 9
16 19 21 22 19 19 23 22 18 22 25 25 22 19 27 22 29 27 30 30 28 32 39 43 48 52 59 65 64 93 100 99 94 100 99 96 100 100 100 100 67 30 12 10
18 18 20 22 19 21 22 28 28 26 22 25 26 24 34 37 31 32 33 34 30 34 44 47 52 55 58 64 75 96 100 95 100 99 94 98 100 100 98 99 19 23 23 10
21 20 20 21 25 28 28 29 20 19 20 29 32 30 45 38 35 36 36 39 33 39 43 45 51 55 47 75 88 93 96 99 95 92 98 100 94 73 98 94 20 17 10 10
18 20 20 21 23 24 31 32 35 43 31 29 37 38 50 41 36 39 42 42 33 36 24 34 32 25 20 42 88 98 96 97 98 98 99 92 42 31 25 31 34 30 20 11
26 24 21 21 23 24 33 34 30 44 42 38 35 42 47 36 39 44 47 41 32 34 33 13 10 24 9 14 54 63 91 100 100 88 70 52 34 14 17 30 34 38 28 15
29 27 27 21 24 26 28 28 42 46 56 52 41 46 44 42 45 48 50 44 28 30 20 5 10 13 6 9 17 24 28 96 89 67 40 34 20 22 28 35 44 43 36 24
23 30 35 29 29 32 32 35 49 46 43 40 48 45 36 41 42 43 58 49 18 3 2 2 2 3 4 7 9 12 20 30 34 26 29 25 25 25 30 51 52 51 44 35
24 27 36 28 25 27 30 37 39 41 39 39 44 57 59 38 44 58 48 39 22 6 2 2 2 2 2 4 8 10 10 13 16 14 14 19 26 37 46 50 52 54 48 35
27 42 35 35 36 43 38 39 39 42 52 60 45 36 36 42 48 39 40 41 28 13 4 2 2 2 2 2 3 6 9 10 11 13 14 21 47 52 65 64 57 54 47 38
27 32 42 36 34 35 40 44 40 42 52 54 47 43 39 38 38 40 40 42 37 22 10 4 2 2 2 1 1 3 6 9 10 10 12 15 25 50 74 70 67 59 51 42
27 33 47 45 36 39 40 41 43 41 34 45 34 31 32 35 36 39 40 41 42 34 19 8 3 2 2 2 1 1 3 5 8 10 10 12 25 40 67 73 67 61 52 42
23 34 44 33 40 30 28 32 42 44 44 34 33 30 33 36 48 40 38 40 42 41 31 18 8 4 3 2 2 1 1 3 4 8 10 9 12 26 50 61 62 57 53 46
38 48 48 43 43 44 44 30 28 31 29 30 33 32 34 35 37 37 36 40 41 43 40 33 20 10 5 4 2 2 1 1 3 3 6 8 9 12 23 34 43 44 46 44
52 60 55 50 48 88 47 31 27 30 31 36 29 34 36 34 34 36 34 36 41 41 41 40 34 23 14 8 5 3 2 1 1 2 3 4 6 7 8 14 21 29 37 36
25 56 59 56 48 40 34 32 28 30 31 41 41 44 40 36 34 46 36 37 36 38 40 42 40 36 27 18 11 7 4 3 2 1 1 2 3 5 6 6 9 18 26 29
28 35 62 64 59 61 36 33 31 31 40 40 40 43 46 36 35 58 36 35 33 35 37 40 43 42 39 31 24 16 10 5 3 2 2 1 1 2 3 4 5 6 9 19
34 51 48 63 64 57 38 33 32 42 50 43 38 40 41 36 35 36 35 36 35 34 33 35 37 42 43 41 36 30 21 14 7 4 3 2 2 1 1 2 2 4 5 6
51 54 67 60 56 59 34 30 32 40 34 34 36 46 38 36 36 36 35 37 35 35 33 32 33 35 41 44 44 41 34 28 20 12 7 5 4 3 2 1 1 2 2 3
55 46 54 61 42 32 36 33 32 31 30 31 37 42 40 39 38 37 34 34 35 35 35 34 32 33 35 39 43 45 44 42 34 26 17 10 7 6 4 3 2 1 1 1
58 52 47 54 26 36 49 48 43 35 31 33 37 37 37 38 38 38 36 34 34 34 35 36 34 34 34 35 40 43 46 48 48 41 35 26 16 11 7 6 4 2 2 2
61 57 56 49 31 41 44 40 36 35 40 32 35 36 36 38 38 39 38 36 35 35 36 37 37 37 38 38 40 40 44 46 50 52 49 44 38 23 15 11 8 5 3 2
40 28 48 32 32 47 53 40 42 31 29 34 36 36 36 37 38 39 39 39 38 37 38 40 42 43 44 45 46 46 45 45 46 48 52 55 53 47 33 17 12 8 5 3
Wind_Speed
17 16 18 17 14 10 8 8 7 6 10 9 5 10 11 11 12 13 16 18 19 20 22 24 27 28 26 24 23 23 23 25 29 25 22 19 19 19 25 27 32 30 28 28
12 21 14 13 13 7 9 10 9 4 12 9 11 11 8 9 12 14 18 21 22 23 25 25 27 25 25 26 23 20 21 21 22 27 23 17 19 16 18 25 27 30 30 28
11 11 10 13 12 11 7 15 10 4 10 8 17 4 4 7 11 15 18 21 22 22 25 24 22 21 22 21 23 21 17 28 23 21 21 14 16 14 12 19 22 29 30 29
8 9 13 10 9 15 6 19 7 5 8 7 10 9 4 7 13 16 19 21 21 21 23 22 21 19 18 20 20 21 16 24 19 23 17 17 13 14 14 10 18 21 27 30
5 11 8 7 11 13 9 15 5 4 5 9 5 10 12 8 18 19 20 21 21 21 22 21 20 18 17 16 16 19 14 17 21 19 17 14 12 13 12 10 13 16 21 30
5 8 11 14 10 12 17 16 13 7 4 6 5 5 6 16 18 19 18 20 21 20 20 20 18 16 16 16 16 21 15 19 16 16 17 14 13 12 9 10 11 18 22 26
8 7 12 13 11 13 14 17 1 6 5 6 6 3 10 15 17 18 19 21 21 19 20 21 18 16 17 15 14 15 18 16 16 16 14 11 9 8 7 10 8 10 18 19
7 4 8 15 12 9 9 9 5 5 6 12 7 5 11 13 15 19 19 20 19 18 25 24 22 18 19 18 14 14 15 14 12 14 11 8 6 6 7 6 4 7 10 17
6 2 14 11 12 8 6 6 5 6 10 7 1 10 11 12 17 19 19 20 18 18 22 27 26 21 21 19 16 17 12 9 10 10 9 6 6 7 5 1 2 4 6 11
6 5 11 13 11 7 5 7 4 2 5 6 6 9 8 17 20 22 21 20 20 19 23 27 26 24 21 19 18 18 17 10 10 11 11 11 7 3 2 2 2 2 3 7
9 4 8 15 5 3 8 5 4 6 3 5 6 5 12 20 28 30 22 21 25 24 25 26 27 26 22 18 18 17 16 13 12 11 9 8 8 5 4 4 3 1 2 3
8 7 7 8 14 9 7 6 5 5 2 9 7 12 10 27 29 22 28 28 27 25 24 25 26 28 26 21 16 17 16 15 13 11 10 7 6 7 6 6 5 2 1 4
12 4 9 5 7 11 8 6 7 8 8 10 7 6 20 21 25 28 27 27 25 23 24 24 26 26 27 25 19 15 15 15 14 13 10 7 8 10 9 6 4 3 1 3
13 9 9 14 15 15 16 13 10 11 8 10 18 24 17 21 24 24 23 24 23 22 22 22 24 25 26 26 24 18 15 14 15 14 13 10 8 9 9 7 7 6 4 2
12 14 13 19 22 20 22 20 17 20 21 14 15 25 19 21 23 22 23 24 23 22 21 21 21 23 24 26 26 23 17 14 14 14 13 12 10 10 9 9 9 8 6 4
17 12 18 25 14 15 19 22 17 19 23 24 20 22 19 21 20 27 25 22 22 21 21 20 20 21 22 24 25 24 21 15 14 13 13 12 10 10 10 8 9 9 8 6
14 11 12 12 13 20 18 5 11 12 14 16 20 16 16 17 18 21 20 21 20 21 20 20 19 19 20 21 23 24 24 20 15 14 12 11 10 9 10 10 9 8 8 7
15 11 9 14 14 4 7 19 17 13 14 18 11 12 17 19 19 21 19 22 21 20 20 20 19 18 19 20 21 21 22 23 20 16 14 13 11 10 8 7 9 10 8 7
16 11 8 7 11 21 15 7 9 11 17 14 16 16 19 21 20 18 20 22 21 20 18 18 19 19 18 18 19 20 20 20 21 21 18 14 12 11 9 8 7 6 7 7
11 11 12 6 6 5 6 20 16 12 15 4 12 13 18 21 20 11 21 19 19 19 20 19 17 17 17 17 17 18 19 19 18 19 19 18 16 13 11 9 8 8 6 5
10 11 17 15 12 15 12 20 7 4 7 17 25 21 21 23 20 20 21 20 19 19 18 19 19 17 17 16 16 16 17 17 17 17 17 17 16 16 15 12 11 9 9 9
10 7 11 10 10 14 8 9 13 13 26 27 27 22 23 23 20 21 22 22 20 19 18 17 18 19 18 17 16 15 15 15 16 15 15 16 15 15 14 14 13 12 11 10
13 19 11 16 17 22 30 29 32 32 30 27 26 24 21 22 21 22 22 22 21 21 19 17 17 17 18 18 17 16 15 15 15 15 15 14 14 14 14 13 12 12 12 12
22 21 28 23 30 26 24 26 29 26 27 23 22 23 24 23 21 21 22 22 22 21 20 20 17 17 17 17 18 17 17 16 16 16 16 16 14 15 14 14 13 12 13 12
20 21 28 36 36 22 18 14 20 25 26 27 25 23 23 25 22 22 22 21 22 22 21 20 20 18 18 18 18 18 18 18 18 17 17 17 18 17 17 17 16 16 15 14
34 28 28 20 11 17 18 17 19 25 23 21 25 26 25 26 25 24 23 22 22 22 21 20 19 19 19 19 19 18 18 19 20 20 20 20 20 20 20 21 21 19 20 18
Wind_Direction
76 85 61 58 57 50 31 13 350 330 321 351 322 304 301 293 296 315 321 320 316 311 309 305 301 294 291 296 290 288 295 303 312 313 308 306 306 287 261 253 244 239 233 237
54 59 60 61 41 40 25 14 350 319 346 355 322 298 305 302 312 306 311 316 315 319 320 314 305 294 291 291 288 288 295 299 311 312 305 304 302 306 270 258 248 245 232 233
82 58 51 50 20 24 339 1 350 323 320 299 329 262 310 331 337 330 336 322 320 316 320 320 315 300 292 293 291 283 287 301 306 309 311 307 305 310 301 258 250 246 240 228
39 34 36 21 351 18 355 338 342 338 338 355 357 341 314 306 349 333 328 332 325 322 320 322 319 313 303 296 291 281 283 303 312 310 308 302 318 310 301 284 258 247 246 233
333 22 28 1 3 6 330 357 20 303 306 321 15 304 357 347 327 334 330 333 331 328 326 329 325 316 311 307 305 291 295 310 297 312 310 307 305 307 311 301 270 253 248 238
2 11 17 1 349 1 359 331 292 288 270 238 30 342 337 342 335 329 330 338 335 326 332 328 327 325 321 315 307 299 304 299 314 306 306 309 310 310 309 296 253 240 235 236
339 338 343 358 20 347 351 353 90 240 211 13 338 297 303 326 329 334 331 337 334 336 330 339 333 333 335 326 324 319 313 311 303 305 302 305 310 307 320 291 258 257 250 245
331 299 337 339 354 344 356 27 24 304 336 322 298 293 320 332 351 342 338 333 337 330 338 344 341 339 346 343 337 328 326 322 314 305 314 321 319 296 279 267 247 241 249 244
343 311 313 329 339 8 333 0 319 286 261 274 350 324 338 355 339 340 341 340 340 336 341 346 349 337 349 353 350 348 347 342 321 319 323 328 319 311 301 252 271 245 243 247
313 304 300 321 334 349 7 337 313 312 322 319 339 292 319 342 344 343 345 343 344 342 344 351 352 343 341 355 356 1 4 350 335 336 336 331 333 341 339 9 302 267 245 243
331 307 295 329 313 306 321 322 327 306 252 311 315 328 317 340 341 340 344 340 348 346 348 355 359 354 342 346 354 356 360 6 4 2 10 12 1 358 12 31 11 325 216 204
319 295 287 286 285 296 299 277 280 288 7 288 273 276 298 343 336 343 336 340 345 350 350 354 2 4 357 345 343 346 350 357 357 4 8 15 27 12 12 16 32 6 202 182
321 311 309 231 328 331 320 292 260 268 283 259 283 330 339 348 320 328 336 341 346 351 352 355 2 6 2 355 344 341 348 351 354 355 10 11 19 18 11 24 45 55 141 161
310 285 256 274 296 298 287 287 269 248 259 275 262 290 315 314 330 334 341 343 348 353 353 358 2 5 8 3 356 349 345 351 355 358 0 13 10 18 30 45 65 71 67 117
299 291 284 283 291 284 276 273 260 250 261 258 288 300 326 329 335 340 342 347 350 354 357 0 2 4 9 9 5 3 359 354 355 358 3 4 17 21 34 58 63 63 72 67
299 288 306 307 293 300 290 286 258 254 256 284 302 312 330 331 323 335 340 345 349 354 358 1 2 2 7 12 14 12 8 6 5 0 2 5 8 23 22 39 66 66 62 72
280 295 310 291 304 314 296 261 297 290 286 295 287 318 318 329 325 330 335 339 350 354 358 360 3 1 3 7 13 17 17 15 12 13 8 3 7 9 26 25 28 52 64 61
263 276 276 284 307 270 287 297 304 287 286 293 333 329 329 330 332 332 338 344 346 351 356 358 0 1 1 3 7 16 19 21 19 15 17 15 7 5 7 14 31 23 33 56
268 242 262 269 286 288 306 256 305 300 305 273 284 295 323 327 326 332 340 339 340 343 352 356 358 358 357 359 0 4 16 21 22 23 18 17 19 8 358 355 359 22 26 21
267 248 233 255 269 266 327 296 310 305 310 190 316 303 309 320 324 316 328 330 336 339 346 350 353 354 352 353 356 359 0 9 17 19 21 20 17 18 14 357 340 333 338 357
253 250 242 247 254 274 296 290 277 265 297 303 312 307 305 310 316 316 319 324 331 335 341 344 346 348 350 348 348 352 354 354 0 6 10 15 17 17 11 7 358 336 317 313
239 235 229 226 232 266 282 261 271 283 293 304 306 298 303 309 312 314 316 319 324 329 334 340 341 341 342 343 342 343 345 345 346 349 354 357 3 7 9 6 360 352 338 317
242 244 260 237 261 275 284 283 285 289 289 290 286 282 289 303 308 311 311 312 317 322 326 329 333 334 335 336 336 335 333 334 335 335 335 338 341 345 348 351 350 346 340 331
263 264 264 274 293 297 286 279 286 287 284 283 286 284 291 298 301 300 301 305 309 314 318 320 324 326 327 329 328 327 327 325 324 323 323 322 321 322 323 325 327 327 326 321
257 260 268 280 298 306 305 293 280 271 271 281 289 290 288 289 298 297 295 298 301 306 309 311 314 320 319 323 320 321 320 319 318 316 313 311 310 307 304 304 304 305 305 306
278 294 266 283 324 291 286 295 283 281 287 281 284 287 297 298 293 294 294 290 294 297 301 305 308 312 314 317 316 316 317 316 315 314 310 306 303 299 296 293 292 289 291 290